Location: Cahas Mountain Overlook
(37.0833°N, 80.1000°W)
Time: 23:52:02
(UTC-04:00)

N. Korean satellite - Visible Passes

Search period start: 21 March 2023 00:00
Search period end: 31 March 2023 00:00
Orbit: 395 x 419 km, 97.3° (Epoch: 21 March)

Date Brightness Start Highest point End Pass type
(mag) Time Alt. Az. Time Alt. Az. Time Alt. Az.
21 Mar 6.2 06:46:47 10° NNE 06:49:56 89° ESE 06:53:02 10° SSW visible
22 Mar 9.4 05:59:46 10° NE 06:01:43 15° E 06:03:39 10° SE visible
23 Mar 6.4 06:42:22 10° NNE 06:45:30 75° E 06:48:36 10° S visible
24 Mar 9.5 05:55:29 10° ENE 05:57:03 13° E 05:58:36 10° SE visible
25 Mar 6.8 06:37:32 10° NNE 06:40:38 60° E 06:43:41 10° S visible
26 Mar 9.8 05:51:03 10° ENE 05:51:56 11° E 05:52:49 10° ESE visible
27 Mar 7.3 06:32:19 10° NNE 06:35:20 47° E 06:38:19 10° S visible
29 Mar 7.8 06:26:41 10° NNE 06:29:36 37° E 06:32:29 10° S visible
